Time,TemperatureF,DewpointF,PressureIn,WindDirection,WindDirectionDegrees,WindSpeedMPH,WindSpeedGustMPH,Humidity,HourlyPrecipIn,Conditions,Clouds,dailyrainin,SoftwareType,DateUTC
2013-02-18 00:04:00,-999.0,-99.9,29.74,WSW,245,20.0,-999.0,-999,-99.99,,,0.00,weatherlink.com 1.10,2013-02-18 05:04:00,
2013-02-18 00:19:00,-999.0,-99.9,29.75,WNW,288,22.0,-999.0,-999,-99.99,,,0.00,weatherlink.com 1.10,2013-02-18 05:19:00,
2013-02-18 00:34:00,-999.0,-99.9,29.76,WSW,245,15.0,-999.0,-999,-99.99,,,0.00,weatherlink.com 1.10,2013-02-18 05:34:00,
2013-02-18 00:49:00,-999.0,-99.9,29.77,WSW,258,7.0,-999.0,-999,-99.99,,,0.00,weatherlink.com 1.10,2013-02-18 05:49:00,
2013-02-18 01:04:00,-999.0,-99.9,29.77,SW,231,18.0,-999.0,-999,-99.99,,,0.00,weatherlink.com 1.10,2013-02-18 06:04:00,
2013-02-18 01:19:00,-999.0,-99.9,29.78,WSW,254,18.0,-999.0,-999,-99.99,,,0.00,weatherlink.com 1.10,2013-02-18 06:19:00,
2013-02-18 01:34:00,-999.0,-99.9,29.78,WSW,250,5.0,-999.0,-999,-99.99,,,0.00,weatherlink.com 1.10,2013-02-18 06:34:00,
2013-02-18 01:49:00,-999.0,-99.9,29.79,West,260,21.0,-999.0,-999,-99.99,,,0.00,weatherlink.com 1.10,2013-02-18 06:49:00,
2013-02-18 02:04:00,-999.0,-99.9,29.79,WSW,244,14.0,-999.0,-999,-99.99,,,0.00,weatherlink.com 1.10,2013-02-18 07:04:00,
2013-02-18 02:19:00,-999.0,-99.9,29.79,SW,235,15.0,-999.0,-999,-99.99,,,0.00,weatherlink.com 1.10,2013-02-18 07:19:00,
2013-02-18 02:34:00,-999.0,-99.9,29.80,WSW,258,6.0,-999.0,-999,-99.99,,,0.00,weatherlink.com 1.10,2013-02-18 07:34:00,
2013-02-18 02:49:00,-999.0,-99.9,29.80,SW,224,10.0,-999.0,-999,-99.99,,,0.00,weatherlink.com 1.10,2013-02-18 07:49:00,
2013-02-18 03:04:00,-999.0,-99.9,29.80,WNW,299,7.0,-999.0,-999,-99.99,,,0.00,weatherlink.com 1.10,2013-02-18 08:04:00,
2013-02-18 03:19:00,-999.0,-99.9,29.82,West,279,20.0,-999.0,-999,-99.99,,,0.00,weatherlink.com 1.10,2013-02-18 08:19:00,
2013-02-18 03:34:00,-999.0,-99.9,29.82,NW,304,10.0,-999.0,-999,-99.99,,,0.00,weatherlink.com 1.10,2013-02-18 08:34:00,
2013-02-18 03:49:00,-999.0,-99.9,29.83,NNW,343,9.0,-999.0,-999,-99.99,,,0.00,weatherlink.com 1.10,2013-02-18 08:49:00,
2013-02-18 04:04:00,-999.0,-99.9,29.84,West,261,13.0,-999.0,-999,-99.99,,,0.00,weatherlink.com 1.10,2013-02-18 09:04:00,
2013-02-18 04:19:00,-999.0,-99.9,29.85,WSW,256,9.0,-999.0,-999,-99.99,,,0.00,weatherlink.com 1.10,2013-02-18 09:19:00,
2013-02-18 04:34:00,-999.0,-99.9,29.86,WSW,242,22.0,-999.0,-999,-99.99,,,0.00,weatherlink.com 1.10,2013-02-18 09:34:00,
2013-02-18 04:49:00,-999.0,-99.9,29.87,WSW,255,6.0,-999.0,-999,-99.99,,,0.00,weatherlink.com 1.10,2013-02-18 09:49:00,
2013-02-18 05:04:00,-999.0,-99.9,29.88,WSW,252,6.0,-999.0,-999,-99.99,,,0.00,weatherlink.com 1.10,2013-02-18 10:04:00,
2013-02-18 05:19:00,-999.0,-99.9,29.89,NW,314,14.0,-999.0,-999,-99.99,,,0.00,weatherlink.com 1.10,2013-02-18 10:19:00,
2013-02-18 05:34:00,-999.0,-99.9,29.89,West,274,14.0,-999.0,-999,-99.99,,,0.00,weatherlink.com 1.10,2013-02-18 10:34:00,
2013-02-18 05:49:00,-999.0,-99.9,29.90,SW,229,12.0,-999.0,-999,-99.99,,,0.00,weatherlink.com 1.10,2013-02-18 10:49:00,
2013-02-18 06:04:00,-999.0,-99.9,29.92,WNW,284,12.0,-999.0,-999,-99.99,,,0.00,weatherlink.com 1.10,2013-02-18 11:04:00,
2013-02-18 06:19:00,-999.0,-99.9,29.92,WSW,244,7.0,-999.0,-999,-99.99,,,0.00,weatherlink.com 1.10,2013-02-18 11:19:00,
2013-02-18 06:34:00,-999.0,-99.9,29.93,NW,316,9.0,-999.0,-999,-99.99,,,0.00,weatherlink.com 1.10,2013-02-18 11:34:00,
2013-02-18 06:49:00,-999.0,-99.9,29.95,WNW,303,7.0,-999.0,-999,-99.99,,,0.00,weatherlink.com 1.10,2013-02-18 11:49:00,
2013-02-18 07:04:00,-999.0,-99.9,29.95,North,355,14.0,-999.0,-999,-99.99,,,0.00,weatherlink.com 1.10,2013-02-18 12:04:00,
2013-02-18 07:19:00,-999.0,-99.9,29.96,SW,226,7.0,-999.0,-999,-99.99,,,0.00,weatherlink.com 1.10,2013-02-18 12:19:00,
2013-02-18 07:34:00,19.5,6.0,29.97,West,265,5.0,-999.0,55,-99.99,,,0.00,weatherlink.com 1.10,2013-02-18 12:34:00,
2013-02-18 07:49:00,19.9,6.0,29.97,West,270,17.0,-999.0,55,-99.99,,,0.00,weatherlink.com 1.10,2013-02-18 12:49:00,
2013-02-18 08:04:00,20.5,7.0,30.00,West,267,11.0,-999.0,55,-99.99,,,0.00,weatherlink.com 1.10,2013-02-18 13:04:00,
2013-02-18 08:19:00,20.8,6.0,30.00,West,265,11.0,-999.0,53,-99.99,,,0.00,weatherlink.com 1.10,2013-02-18 13:19:00,
2013-02-18 08:34:00,21.1,7.0,30.01,West,259,13.0,-999.0,55,-99.99,,,0.00,weatherlink.com 1.10,2013-02-18 13:34:00,
2013-02-18 08:49:00,21.4,7.0,30.01,SSW,197,14.0,-999.0,54,-99.99,,,0.00,weatherlink.com 1.10,2013-02-18 13:49:00,
2013-02-18 09:04:00,21.8,7.0,30.02,WNW,285,15.0,-999.0,53,-99.99,,,0.00,weatherlink.com 1.10,2013-02-18 14:04:00,
2013-02-18 09:19:00,23.0,8.0,30.03,WNW,299,11.0,-999.0,52,-99.99,,,0.00,weatherlink.com 1.10,2013-02-18 14:19:00,
2013-02-18 09:34:00,23.8,8.0,30.02,SW,216,7.0,-999.0,50,-99.99,,,0.00,weatherlink.com 1.10,2013-02-18 14:34:00,
2013-02-18 09:49:00,25.3,8.0,30.03,NW,326,11.0,-999.0,47,-99.99,,,0.00,weatherlink.com 1.10,2013-02-18 14:49:00,
2013-02-18 10:04:00,26.0,7.0,30.03,SSW,211,7.0,-999.0,44,-99.99,,,0.00,weatherlink.com 1.10,2013-02-18 15:04:00,
2013-02-18 10:19:00,26.9,8.0,30.04,SSW,213,6.0,-999.0,45,-99.99,,,0.00,weatherlink.com 1.10,2013-02-18 15:19:00,
2013-02-18 10:34:00,26.6,8.0,30.05,West,271,18.0,-999.0,45,-99.99,,,0.00,weatherlink.com 1.10,2013-02-18 15:34:00,
2013-02-18 10:49:00,26.7,9.0,30.05,NW,315,6.0,-999.0,48,-99.99,,,0.00,weatherlink.com 1.10,2013-02-18 15:49:00,
2013-02-18 11:04:00,26.4,9.0,30.04,West,262,13.0,-999.0,49,-99.99,,,0.00,weatherlink.com 1.10,2013-02-18 16:04:00,
2013-02-18 11:19:00,26.7,9.0,30.05,SW,226,6.0,-999.0,48,-99.99,,,0.00,weatherlink.com 1.10,2013-02-18 16:19:00,
2013-02-18 11:34:00,27.5,10.0,30.06,West,274,11.0,-999.0,48,-99.99,,,0.00,weatherlink.com 1.10,2013-02-18 16:34:00,
2013-02-18 11:49:00,27.6,9.0,30.06,South,180,9.0,-999.0,46,-99.99,,,0.00,weatherlink.com 1.10,2013-02-18 16:49:00,
2013-02-18 12:04:00,27.6,9.0,30.06,SSW,210,1.0,-999.0,46,-99.99,,,0.00,weatherlink.com 1.10,2013-02-18 17:04:00,
2013-02-18 12:19:00,28.7,10.0,30.05,NNW,327,4.0,-999.0,45,-99.99,,,0.00,weatherlink.com 1.10,2013-02-18 17:19:00,
2013-02-18 12:34:00,28.8,9.0,30.05,WNW,283,10.0,-999.0,44,-99.99,,,0.00,weatherlink.com 1.10,2013-02-18 17:34:00,
2013-02-18 12:49:00,29.3,10.0,30.05,WSW,239,9.0,-999.0,44,-99.99,,,0.00,weatherlink.com 1.10,2013-02-18 17:49:00,
2013-02-18 13:19:00,30.4,11.0,30.05,SSW,206,2.0,-999.0,45,-99.99,,,0.00,weatherlink.com 1.10,2013-02-18 18:19:00,
2013-02-18 13:34:00,30.1,12.0,30.04,WNW,285,10.0,-999.0,48,-99.99,,,0.00,weatherlink.com 1.10,2013-02-18 18:34:00,
2013-02-18 14:04:00,30.7,13.0,30.04,WSW,251,4.0,-999.0,49,-99.99,,,0.00,weatherlink.com 1.10,2013-02-18 19:04:00,
2013-02-18 14:19:00,30.7,13.0,30.04,SW,218,6.0,-999.0,48,-99.99,,,0.00,weatherlink.com 1.10,2013-02-18 19:19:00,
2013-02-18 14:34:00,30.9,13.0,30.03,SW,230,5.0,-999.0,48,-99.99,,,0.00,weatherlink.com 1.10,2013-02-18 19:34:00,
2013-02-18 14:49:00,31.0,13.0,30.04,SW,230,5.0,-999.0,48,-99.99,,,0.00,weatherlink.com 1.10,2013-02-18 19:49:00,
2013-02-18 15:04:00,31.5,14.0,30.04,SW,214,2.0,-999.0,49,-99.99,,,0.00,weatherlink.com 1.10,2013-02-18 20:04:00,
2013-02-18 15:19:00,31.3,12.0,30.03,WSW,240,5.0,-999.0,45,-99.99,,,0.00,weatherlink.com 1.10,2013-02-18 20:19:00,
2013-02-18 15:34:00,31.6,13.0,30.04,South,183,5.0,-999.0,47,-99.99,,,0.00,weatherlink.com 1.10,2013-02-18 20:34:00,
2013-02-18 15:49:00,31.6,12.0,30.03,WSW,237,7.0,-999.0,45,-99.99,,,0.00,weatherlink.com 1.10,2013-02-18 20:49:00,
2013-02-18 16:19:00,31.8,14.0,30.05,West,275,3.0,-999.0,48,-99.99,,,0.00,weatherlink.com 1.10,2013-02-18 21:19:00,
2013-02-18 16:34:00,31.8,15.0,30.05,SW,232,5.0,-999.0,50,-99.99,,,0.00,weatherlink.com 1.10,2013-02-18 21:34:00,
2013-02-18 16:49:00,31.5,15.0,30.05,WSW,239,2.0,-999.0,51,-99.99,,,0.00,weatherlink.com 1.10,2013-02-18 21:49:00,
2013-02-18 17:04:00,31.0,16.0,30.06,WSW,242,3.0,-999.0,54,-99.99,,,0.00,weatherlink.com 1.10,2013-02-18 22:04:00,
2013-02-18 17:19:00,-999.0,-99.9,30.06,SW,221,5.0,-999.0,-999,-99.99,,,0.00,weatherlink.com 1.10,2013-02-18 22:19:00,
2013-02-18 17:34:00,-999.0,-99.9,30.06,SW,231,4.0,-999.0,-999,-99.99,,,0.00,weatherlink.com 1.10,2013-02-18 22:34:00,
2013-02-18 17:49:00,-999.0,-99.9,30.07,SW,230,3.0,-999.0,-999,-99.99,,,0.00,weatherlink.com 1.10,2013-02-18 22:49:00,
2013-02-18 18:04:00,-999.0,-99.9,30.07,SSW,204,1.0,-999.0,-999,-99.99,,,0.00,weatherlink.com 1.10,2013-02-18 23:04:00,
2013-02-18 18:19:00,-999.0,-99.9,30.07,SW,232,2.0,-999.0,-999,-99.99,,,0.00,weatherlink.com 1.10,2013-02-18 23:19:00,
2013-02-18 18:34:00,-999.0,-99.9,30.08,SW,230,2.0,-999.0,-999,-99.99,,,0.00,weatherlink.com 1.10,2013-02-18 23:34:00,
2013-02-18 18:49:00,-999.0,-99.9,30.09,SW,225,2.0,-999.0,-999,-99.99,,,0.00,weatherlink.com 1.10,2013-02-18 23:49:00,
2013-02-18 19:04:00,-999.0,-99.9,30.09,SSW,213,4.0,-999.0,-999,-99.99,,,0.00,weatherlink.com 1.10,2013-02-19 00:04:00,
2013-02-18 19:19:00,-999.0,-99.9,30.10,SW,236,2.0,-999.0,-999,-99.99,,,0.00,weatherlink.com 1.10,2013-02-19 00:19:00,
2013-02-18 19:34:00,-999.0,-99.9,30.10,SW,232,3.0,-999.0,-999,-99.99,,,0.00,weatherlink.com 1.10,2013-02-19 00:34:00,
2013-02-18 19:49:00,-999.0,-99.9,30.11,SW,226,4.0,-999.0,-999,-99.99,,,0.00,weatherlink.com 1.10,2013-02-19 00:49:00,
2013-02-18 20:04:00,-999.0,-99.9,30.10,SW,228,2.0,-999.0,-999,-99.99,,,0.00,weatherlink.com 1.10,2013-02-19 01:04:00,
2013-02-18 20:19:00,-999.0,-99.9,30.10,SW,220,4.0,-999.0,-999,-99.99,,,0.00,weatherlink.com 1.10,2013-02-19 01:19:00,
2013-02-18 20:34:00,-999.0,-99.9,30.11,WSW,237,4.0,-999.0,-999,-99.99,,,0.00,weatherlink.com 1.10,2013-02-19 01:34:00,
2013-02-18 20:49:00,-999.0,-99.9,30.11,SW,233,3.0,-999.0,-999,-99.99,,,0.00,weatherlink.com 1.10,2013-02-19 01:49:00,
2013-02-18 21:04:00,-999.0,-99.9,30.11,SW,232,2.0,-999.0,-999,-99.99,,,0.00,weatherlink.com 1.10,2013-02-19 02:04:00,
2013-02-18 21:19:00,-999.0,-99.9,30.11,SW,215,5.0,-999.0,-999,-99.99,,,0.00,weatherlink.com 1.10,2013-02-19 02:19:00,
2013-02-18 21:34:00,-999.0,-99.9,30.12,SW,227,4.0,-999.0,-999,-99.99,,,0.00,weatherlink.com 1.10,2013-02-19 02:34:00,
2013-02-18 21:49:00,-999.0,-99.9,30.12,WSW,237,10.0,-999.0,-999,-99.99,,,0.00,weatherlink.com 1.10,2013-02-19 02:49:00,
2013-02-18 22:04:00,-999.0,-99.9,30.12,WSW,246,3.0,-999.0,-999,-99.99,,,0.00,weatherlink.com 1.10,2013-02-19 03:04:00,
2013-02-18 22:19:00,-999.0,-99.9,30.12,SW,235,4.0,-999.0,-999,-99.99,,,0.00,weatherlink.com 1.10,2013-02-19 03:19:00,
2013-02-18 22:34:00,-999.0,-99.9,30.12,SW,228,3.0,-999.0,-999,-99.99,,,0.00,weatherlink.com 1.10,2013-02-19 03:34:00,
2013-02-18 22:49:00,-999.0,-99.9,30.12,West,259,3.0,-999.0,-999,-99.99,,,0.00,weatherlink.com 1.10,2013-02-19 03:49:00,
2013-02-18 23:04:00,-999.0,-99.9,30.12,SW,230,3.0,-999.0,-999,-99.99,,,0.00,weatherlink.com 1.10,2013-02-19 04:04:00,
2013-02-18 23:19:00,-999.0,-99.9,30.12,SW,229,3.0,-999.0,-999,-99.99,,,0.00,weatherlink.com 1.10,2013-02-19 04:19:00,
2013-02-18 23:34:00,-999.0,-99.9,30.12,SSW,213,2.0,-999.0,-999,-99.99,,,0.00,weatherlink.com 1.10,2013-02-19 04:34:00,
2013-02-18 23:49:00,-999.0,-99.9,30.13,SW,230,3.0,-999.0,-999,-99.99,,,0.00,weatherlink.com 1.10,2013-02-19 04:49:00,